Station CASM1 - 8418150 - Portland, ME Image indicating link to RSS feed of recent meteorological observations for station CASM1


Conditions at CASM1 as of
(2:30 am EDT)
0630 GMT on 09/24/2023:
     

Click on the graph icon in the table below to see a time series plot of the last five days of that observation.

5-day plot - Atmospheric Pressure Atmospheric Pressure (PRES):30.19 in
5-day plot - Air Temperature Air Temperature (ATMP): 56.5 °F
5-day plot - Water Temperature Water Temperature (WTMP): 61.0 °F
NOS Water Level Observation Network Water Level
Previous observations
TIME
(EDT)
5-day plot - Wind Direction
WDIR
 
5-day plot - Wind Speed
WSPD
kts
5-day plot - Wind Gust
GST
kts
5-day plot - Wave Height
WVHT
ft
5-day plot - Dominant Wave Period
DPD
sec
5-day plot - Average Wave Period
APD
sec
5-day plot - Mean Wave Direction
MWD
 
5-day plot - Atmospheric Pressure
PRES
in
5-day plot - Pressure Tendency
PTDY
in
5-day plot - Air Temperature
ATMP
°F
5-day plot - Water Temperature
WTMP
°F
5-day plot - Dew Point
DEWP
°F
5-day plot - Salinity
SAL
psu
5-day plot - Visibility
VIS
nmi
5-day plot - Tide (above MLLW)
TIDE
ft
2023-09-24 02:24 am-------30.19- 56.5 61.0----
2023-09-24 02:18 am-------30.19- 56.3 61.0----
2023-09-24 02:12 am-------30.20- 56.3 61.0----
2023-09-24 02:06 am-------30.20- 56.1 61.0----
2023-09-24 02:00 am-------30.20-0.02 56.3 61.0----
2023-09-24 01:54 am-------30.20- 56.1 61.0----
2023-09-24 01:48 am-------30.20- 56.1 61.0----
2023-09-24 01:42 am-------30.20- 55.9 61.0----
2023-09-24 01:36 am-------30.21- 55.6 61.0----
2023-09-24 01:30 am-------30.21- 55.8 61.0----
2023-09-24 01:24 am-------30.22- 55.9 61.0----
2023-09-24 01:18 am-------30.22- 56.1 61.0----
2023-09-24 01:12 am-------30.22- 56.1 61.0----
2023-09-24 01:06 am-------30.21- 55.8 61.0----
2023-09-24 01:00 am-------30.21-0.01 55.6 60.8----
2023-09-24 12:54 am-------30.22- 55.4 60.8----
2023-09-24 12:48 am-------30.22- 55.4 60.8----
2023-09-24 12:42 am-------30.22- 55.6 60.8----
2023-09-24 12:36 am-------30.22- 55.6 60.8----
2023-09-24 12:30 am-------30.22- 55.6 60.8----
2023-09-24 12:24 am-------30.22- 55.6 60.8----
2023-09-24 12:18 am-------30.22- 55.4 60.8----
2023-09-24 12:12 am-------30.22- 55.4 60.8----
2023-09-24 12:06 am-------30.22- 55.2 60.8----
2023-09-24 12:00 am-------30.22-0.01 55.4 60.8----
2023-09-23 11:54 pm-------30.23- 55.6 60.8----
2023-09-23 11:48 pm-------30.23- 56.1 60.8----
2023-09-23 11:42 pm-------30.23- 56.1 61.0----
2023-09-23 11:36 pm-------30.23- 56.1 60.8----
2023-09-23 11:30 pm-------30.23- 56.3 61.0----
2023-09-23 11:24 pm-------30.23- 56.3 61.0----
2023-09-23 11:18 pm-------30.22- 55.8 61.0----
2023-09-23 11:12 pm-------30.23- 55.6 61.0----
2023-09-23 11:06 pm-------30.22- 55.4 60.8----
2023-09-23 11:00 pm-------30.22-0.02 55.8 60.8----
2023-09-23 10:54 pm-------30.22- 55.9 60.8----
2023-09-23 10:48 pm-------30.22- 56.8 60.8----
2023-09-23 10:42 pm-------30.23- 56.8 60.8----
2023-09-23 10:36 pm-------30.23- 56.8 60.8----
2023-09-23 10:30 pm-------30.23- 56.8 60.8----
2023-09-23 10:24 pm-------30.23- 56.7 60.8----
2023-09-23 10:18 pm-------30.23- 56.8 60.8----
2023-09-23 10:12 pm-------30.22- 56.7 60.8----
2023-09-23 10:06 pm-------30.22- 56.7 60.8----
2023-09-23 10:00 pm-------30.22-0.02 56.7 60.8----
2023-09-23 09:54 pm-------30.22- 56.7 60.6----
2023-09-23 09:48 pm-------30.23- 56.7 60.6----
2023-09-23 09:42 pm-------30.22- 56.7 60.6----
2023-09-23 09:36 pm-------30.23- 56.7 60.6----
2023-09-23 09:30 pm-------30.23- 56.7 60.4----
2023-09-23 09:24 pm-------30.23- 56.8 60.4----
2023-09-23 09:18 pm-------30.23- 56.8 60.4----
2023-09-23 09:12 pm-------30.23- 56.8 60.4----
2023-09-23 09:06 pm-------30.24- 56.7 60.3----
2023-09-23 09:00 pm-------30.24-0.01 56.7 60.3----
2023-09-23 08:54 pm-------30.24- 56.7 60.3----
2023-09-23 08:48 pm-------30.24- 56.7 60.3----
2023-09-23 08:42 pm-------30.24- 56.7 60.3----
2023-09-23 08:36 pm-------30.24- 56.8 60.4----
2023-09-23 08:30 pm-------30.24- 56.7 60.3----
2023-09-23 08:24 pm-------30.24- 56.7 60.3----
2023-09-23 08:18 pm-------30.24- 56.8 60.1----
2023-09-23 08:12 pm-------30.24- 56.8 60.1----
2023-09-23 08:06 pm-------30.24- 56.8 60.1----
2023-09-23 08:00 pm-------30.24+0.00 56.8 60.3----
2023-09-23 07:54 pm-------30.25- 56.7 60.3----
2023-09-23 07:48 pm-------30.25- 56.7 60.3----
2023-09-23 07:42 pm-------30.24- 56.7 60.3----
2023-09-23 07:36 pm-------30.24- 56.7 60.3----
2023-09-23 07:30 pm-------30.24- 56.7 60.3----
2023-09-23 07:24 pm-------30.24- 56.8 60.3----
2023-09-23 07:00 pm-------30.24-0.02 57.0 60.4----
2023-09-23 06:54 pm-------30.24- 57.0 60.4----
2023-09-23 06:48 pm-------30.24- 57.0 60.4----
2023-09-23 06:42 pm-------30.24- 56.8 60.4----
2023-09-23 06:36 pm-------30.24- 57.0 60.4----
2023-09-23 06:30 pm-------30.24- 56.8 60.4----
2023-09-23 06:24 pm-------30.24- 57.0 60.3----
2023-09-23 06:18 pm-------30.25- 57.0 60.3----
2023-09-23 06:12 pm-------30.25- 57.0 60.3----
2023-09-23 06:06 pm-------30.24- 57.0 60.3----
2023-09-23 06:00 pm-------30.24-0.02 57.2 60.3----
2023-09-23 05:54 pm-------30.24- 57.0 60.3----
2023-09-23 05:48 pm--------- 57.0 60.3----
2023-09-23 05:42 pm--------- 57.2 60.3----
2023-09-23 05:36 pm--------- 57.0 60.4----
2023-09-23 05:30 pm-------30.24- 57.0 60.3----
2023-09-23 05:24 pm-------30.23- 57.0 60.3----
2023-09-23 05:18 pm-------30.23- 57.2 60.4----
2023-09-23 05:12 pm-------30.23- 57.2 60.3----
2023-09-23 05:06 pm-------30.23- 57.4 60.4----
2023-09-23 05:00 pm-------30.24-0.05 57.2 60.4----
2023-09-23 04:54 pm-------30.24- 57.2 60.4----
2023-09-23 04:48 pm-------30.24- 57.2 60.4----
2023-09-23 04:42 pm-------30.24- 57.2 60.4----
2023-09-23 04:36 pm-------30.24- 57.4 60.4----
2023-09-23 04:30 pm-------30.25- 57.4 60.4----
2023-09-23 04:24 pm-------30.25- 57.4 60.4----
2023-09-23 04:18 pm-------30.25- 57.4 60.4----
2023-09-23 04:12 pm-------30.26- 57.4 60.4----
2023-09-23 04:06 pm-------30.26- 57.4 60.4----
2023-09-23 04:00 pm-------30.26-0.05 57.4 60.4----
2023-09-23 03:54 pm-------30.26- 57.4 60.4----
2023-09-23 03:48 pm-------30.26- 57.6 60.4----
2023-09-23 03:42 pm-------30.26- 57.4 60.4----
2023-09-23 03:36 pm-------30.26- 57.4 60.3----
2023-09-23 03:30 pm-------30.26- 57.6 60.4----
2023-09-23 03:24 pm-------30.26- 57.4 60.6----
2023-09-23 03:18 pm-------30.26- 57.4 60.6----
2023-09-23 03:12 pm-------30.26- 57.6 60.6----
2023-09-23 03:06 pm-------30.26- 57.7 60.8----
2023-09-23 03:00 pm-------30.27-0.04 57.6-----
2023-09-23 02:54 pm-------30.27- 57.6-----
2023-09-23 02:48 pm-------30.27- 57.6 60.6----
2023-09-23 02:42 pm-------30.27- 57.6 60.8----
2023-09-23 02:36 pm-------30.28- 57.6 61.0----
2023-09-23 02:30 pm-------30.28- 57.6 61.0----
2023-09-23 02:24 pm-------30.28- 57.6 60.8----
2023-09-23 02:18 pm-------30.28- 57.6 60.8----
2023-09-23 02:12 pm-------30.28- 57.6 61.0----
2023-09-23 02:06 pm-------30.28- 57.6 61.2----
2023-09-23 02:00 pm-------30.28-0.04 57.6 61.2----
2023-09-23 01:54 pm-------30.29- 57.6 61.3----
2023-09-23 01:48 pm-------30.29- 57.7 61.3----
2023-09-23 01:42 pm-------30.29- 57.7 61.3----
2023-09-23 01:36 pm-------30.30- 57.7 61.5----
2023-09-23 01:30 pm-------30.30- 57.9 61.7----
2023-09-23 01:24 pm-------30.30- 57.7 61.5----
2023-09-23 01:18 pm-------30.30- 57.6 61.7----
2023-09-23 01:12 pm-------30.31- 57.9 61.7----
2023-09-23 01:06 pm-------30.31- 57.7 61.7----
2023-09-23 01:00 pm-------30.31-0.03 58.1 61.9----
2023-09-23 12:54 pm-------30.31- 57.7 61.5----
2023-09-23 12:48 pm-------30.31- 57.7 61.5----
2023-09-23 12:42 pm-------30.31- 57.6 61.5----
2023-09-23 12:36 pm-------30.31- 57.6 61.5----
2023-09-23 12:30 pm-------30.31- 57.6 61.5----
2023-09-23 12:24 pm-------30.31- 57.6 61.5----
2023-09-23 12:18 pm-------30.31- 57.4 61.3----
2023-09-23 12:12 pm-------30.31- 57.6 61.5----
2023-09-23 12:06 pm-------30.31- 57.4 61.5----
2023-09-23 12:00 pm-------30.31-0.02 57.7 61.5----
2023-09-23 11:54 am-------30.31- 57.7 61.7----
2023-09-23 11:48 am-------30.31- 57.9 61.9----
2023-09-23 11:42 am-------30.32- 57.7 61.7----
2023-09-23 11:36 am-------30.32- 57.7 61.5----
2023-09-23 11:30 am-------30.32- 57.7 61.2----
2023-09-23 11:24 am-------30.32- 57.7 61.2----
2023-09-23 11:18 am-------30.32- 57.7 61.0----
2023-09-23 11:12 am-------30.32- 57.9 61.2----
2023-09-23 11:06 am-------30.32- 57.7 61.2----
2023-09-23 11:00 am-------30.32-0.01 57.7 61.2----
2023-09-23 10:54 am-------30.32- 57.9 61.0----
2023-09-23 10:48 am-------30.32- 57.7 61.0----
2023-09-23 10:42 am-------30.32- 57.7 61.2----
2023-09-23 10:36 am-------30.33- 57.7 61.2----
2023-09-23 10:30 am-------30.33- 57.7 61.2----
2023-09-23 10:24 am-------30.33- 57.7 61.2----
2023-09-23 10:18 am-------30.33- 57.9 61.2----
2023-09-23 10:12 am-------30.33- 57.9 61.2----
2023-09-23 10:06 am-------30.33- 58.1 61.2----
2023-09-23 10:00 am-------30.34-0.01 58.1 61.0----
2023-09-23 09:54 am-------30.34- 57.9 61.0----
2023-09-23 09:48 am-------30.34- 57.7 61.0----
2023-09-23 09:42 am-------30.34- 57.0 61.0----
2023-09-23 09:36 am-------30.34- 57.0 60.8----
2023-09-23 09:30 am-------30.34- 56.8 60.8----
2023-09-23 09:24 am-------30.34- 57.4 60.8----
2023-09-23 09:18 am-------30.34- 57.2 60.8----
2023-09-23 09:12 am-------30.34- 57.0 60.8----
2023-09-23 09:06 am-------30.34- 56.7 60.8----
2023-09-23 09:00 am-------30.34-0.01 56.3 60.8----
2023-09-23 08:54 am-------30.34- 56.3 60.8----
2023-09-23 08:48 am-------30.34- 56.3 60.8----
2023-09-23 08:42 am-------30.34- 56.5 60.8----
2023-09-23 08:36 am-------30.34- 56.5 60.8----
2023-09-23 08:30 am-------30.34- 57.2 60.6----
2023-09-23 08:24 am-------30.34- 58.5 60.6----
2023-09-23 08:18 am-------30.34- 57.2 60.6----
2023-09-23 08:12 am-------30.34- 56.7 60.6----
2023-09-23 08:06 am-------30.34- 56.3 60.8----
2023-09-23 08:00 am-------30.34+0.00 55.8 60.6----
2023-09-23 07:54 am-------30.34- 55.2 60.6----
2023-09-23 07:48 am-------30.34- 54.7 60.6----
2023-09-23 07:42 am-------30.34- 54.5 60.6----
2023-09-23 07:36 am-------30.34- 54.3 60.6----
2023-09-23 07:30 am-------30.34- 54.3 60.6----
2023-09-23 07:24 am-------30.34- 54.3 60.6----
2023-09-23 07:18 am-------30.34- 53.8 60.6----
2023-09-23 07:12 am-------30.35- 52.9 60.6----
2023-09-23 07:06 am-------30.35- 52.7 60.8----
2023-09-23 07:00 am-------30.35+0.01 52.5 60.8----
2023-09-23 06:54 am-------30.35- 52.3 60.8----
2023-09-23 06:48 am-------30.35- 52.2 60.8----
2023-09-23 06:42 am-------30.35- 52.2 60.8----
2023-09-23 06:36 am-------30.34- 52.3 60.8----
2023-09-23 06:30 am-------30.35- 52.7 60.8----
2023-09-23 06:24 am-------30.35- 53.1 60.8----
2023-09-23 06:18 am-------30.34- 53.1 60.8----
2023-09-23 06:12 am-------30.35- 52.9 60.8----
2023-09-23 06:06 am-------30.35- 52.7 60.8----
2023-09-23 06:00 am-------30.35+0.00 52.7 60.8----
2023-09-23 05:54 am-------30.35- 52.2 60.8----
2023-09-23 05:48 am-------30.35- 52.3 60.8----
2023-09-23 05:42 am-------30.34- 52.7 60.8----
2023-09-23 05:36 am-------30.34- 52.7 60.8----
2023-09-23 05:30 am-------30.34- 52.3 60.8----
2023-09-23 05:24 am-------30.34- 52.5 60.8----
2023-09-23 05:18 am-------30.34- 52.7 61.0----
2023-09-23 05:12 am-------30.34- 53.1 61.0----
2023-09-23 05:06 am-------30.34- 53.6 61.0----
2023-09-23 05:00 am-------30.34-0.02 53.4 61.0----
2023-09-23 04:54 am-------30.34- 53.4 61.0----
2023-09-23 04:48 am-------30.34- 53.4 60.8----
2023-09-23 04:42 am-------30.34- 53.1 60.8----
2023-09-23 04:36 am-------30.35- 52.9 60.8----
2023-09-23 04:30 am-------30.34- 52.9 60.8----
2023-09-23 04:24 am-------30.34- 52.7 60.8----
2023-09-23 04:18 am-------30.34- 52.7 60.8----
2023-09-23 04:12 am-------30.34- 52.5 60.8----
2023-09-23 04:06 am-------30.34- 52.3 60.8----
2023-09-23 04:00 am-------30.34-0.02 52.5 60.8----
2023-09-23 03:54 am-------30.34- 52.5 60.6----
2023-09-23 03:48 am-------30.34- 52.7 60.8----
2023-09-23 03:42 am-------30.34- 53.1 60.8----
2023-09-23 03:36 am-------30.34- 52.7 60.8----
2023-09-23 03:30 am-------30.34- 52.5 60.8----
2023-09-23 03:24 am-------30.34- 52.3 60.8----
2023-09-23 03:18 am-------30.35- 52.3 60.8----
2023-09-23 03:12 am-------30.35- 52.5 60.8----
2023-09-23 03:06 am-------30.35- 52.7 60.8----
2023-09-23 03:00 am-------30.35-0.02 53.1 61.2----
2023-09-23 02:54 am-------30.35- 53.4 61.5----